2018-108A (43871 NORAD) Tracking and Keplerian Element Data

This shows tracking and keplerian element data for the satellite.

Feedback or suggestion? Click here.




ElementValue
Catalog43871
Name2018-108A
Epoch Orbit347
Epoch Day16.74509487
Epoch Year2019
RAAN26.1573
Inclination99.9211
Eccentricity0.0010767
Argument of Perigee222.4891
Mean Anonmoly137.5404
Mean Motion13.50693595
Decay Rate-4.5E-07
L11 43871U 18108A 19016.74509487 -.00000045 00000-0 00000+0 0 9991
L22 43871 99.9211 26.1573 0010767 222.4891 137.5404 13.50693595 3473

Live tracking and technical data element details for 2018-108A (NORAD 43871). 2018-108A can be tracked NOW for your location showing map with azimuth and elevation plus other details from your city location.

Track the satellite on the map from your city or location and see movement details for azimuth, elevation, latitude, longitude, range, height, and movement on the map or in text.







IsCatalogInMostPopularTable: catalog: 43871, numindb: 15
Update: records affected: 1



GetName: 43871 2018-108A

Hit Count: updated at: Thu, 17 Jan 2019 14:39:34 GMT